Location: Malvern Link
(52.1333°N, 2.3000°W)
Time: 19:19:32
(UTC+00:00)

Cosmos 1707 - Pass Details

Date: 18 September 2020
Orbit: 515 x 531 km, 82.5° (Epoch: 21 October)

Event Time Altitude Azimuth Distance (km) Brightness Sun altitude
Rises 19:13:57 0° 351° (N) 2,657 6.7 -9.6°
Reaches altitude 10° 19:16:07 10° 354° (N) 1,762 5.7 -9.9°
Maximum altitude 19:19:58 67° 77° (ENE) 567 2.7 -10.5°
Drops below altitude 10° 19:23:46 10° 161° (SSE) 1,742 5.0 -11.0°
Enters shadow 19:25:33 - 164° (SSE) 2,477 5.8 -11.3°
